Preview of NWS' New Version of Forecast
This preview is not operational and should not be used for support decisions.

Regional Weather Roundup (RWR)

Issued by National Weather Service (NWS)

                            
000
ASPQ40 PGUM 172210
RWRPQ 
WEATHER ROUNDUP FOR THE MARIANAS AND MICRONESIA
NATIONAL WEATHER SERVICE TIYAN GU
800 AM CHST TUE JUN 18 2019

GUZ001>004-172300-
MARIANA ISLANDS-
  
CITY           SKY/WX    TMP DP  RH WIND       PRES   REMARKS
GUAM AIRPORT   MOSUNNY   82  77  83 E8        29.89R HX  91           
ANDERSEN AFB   PTSUNNY   84  77  79 NE9       29.89S HX  94           
ROTA AIRPORT   MOSUNNY   82  75  78 E12       29.87S                  
TINIAN AP      MOSUNNY   86  77  74 E9        29.87R HX  97           
SAIPAN AP      MOSUNNY   84  75  74 E13       29.88R HX  92           

$$

PMZ161-172300-
REPUBLIC OF PALAU-
  
CITY           SKY/WX    TMP DP  RH WIND       PRES   REMARKS
KOROR AP       NOT AVBL                                               
KOROR WSO      NOT AVBL                                               

$$

PMZ171>174-172300-
FEDERATED STATES OF MICRONESIA-
  
CITY           SKY/WX    TMP DP  RH WIND       PRES   REMARKS
YAP AIRPORT    PTSUNNY   84  79  84 VRB3      29.84R HX  96           
CHUUK AP       CLOUDY    86  79  79 VRB5      29.82R HX  99           
POHNPEI AP     LGT RAIN  81  77  89 SE5       29.80F                  
POHNPEI WSO    CLOUDY    81  75  83 E5        29.85R                  
KOSRAE AP      PTSUNNY   84  77  79 NE6       29.81  HX  94           

$$

PMZ181-172300-
REPUBLIC OF THE MARSHALL ISLANDS-
  
CITY           SKY/WX    TMP DP  RH WIND       PRES   REMARKS
KWAJALEIN AP   SUNNY     86  77  74 E13       29.86S HX  97           
MAJURO AP      PTSUNNY   84  77  79 NE12      29.85S HX  94           
MAJURO WSO     PTSUNNY   84  77  79 E6        29.84R HX  94           

$$